Location: Arroyo Retuerta
(40.5469°N, 4.3534°W)
Time: 11:16:58
(UTC+00:00)

SL-4 R/B - Pass Details

Date: 01 June 2020
Orbit: 428 x 666 km, 51.6° (Epoch: 05 July)

Event Time Altitude Azimuth Distance (km) Brightness Sun altitude
Rises 22:16:16 0° 233° (SW) 2,916 5.6 -21.4°
Reaches altitude 10° 22:18:33 10° 233° (SW) 2,035 4.8 -21.6°
Maximum altitude 22:23:17 88° 323° (NW) 665 2.3 -22.0°
Drops below altitude 10° 22:28:09 10° 53° (NE) 2,090 5.1 -22.5°
Sets 22:30:31 0° 54° (NE) 3,001 5.9 -22.7°
